TimeMST,TemperatureF,Dew PointF,Humidity,Sea Level PressureIn,VisibilityMPH,Wind Direction,Wind SpeedMPH,Gust SpeedMPH,PrecipitationIn,Events,Conditions,WindDirDegrees,DateUTC
12:53 AM,45.0,21.0,39,30.06,10.0,ENE,11.5,-,N/A,,Clear,60,2013-03-06 07:53:00
1:53 AM,46.0,21.0,37,30.04,10.0,NE,11.5,-,N/A,,Clear,50,2013-03-06 08:53:00
2:53 AM,46.9,21.9,37,30.03,10.0,NE,9.2,-,N/A,,Clear,50,2013-03-06 09:53:00
3:53 AM,46.9,21.9,37,30.01,10.0,ENE,9.2,-,N/A,,Clear,70,2013-03-06 10:53:00
4:53 AM,45.0,21.0,39,30.00,10.0,ENE,10.4,-,N/A,,Clear,60,2013-03-06 11:53:00
5:53 AM,46.0,21.9,39,30.04,10.0,NE,9.2,-,N/A,,Clear,40,2013-03-06 12:53:00
6:53 AM,44.1,21.9,42,30.06,10.0,ENE,6.9,-,N/A,,Clear,60,2013-03-06 13:53:00
7:53 AM,48.9,21.9,35,30.07,10.0,ENE,10.4,-,N/A,,Clear,70,2013-03-06 14:53:00
8:53 AM,53.1,21.9,30,30.09,10.0,East,10.4,-,N/A,,Clear,80,2013-03-06 15:53:00
9:53 AM,57.9,23.0,26,30.06,10.0,East,8.1,-,N/A,,Clear,90,2013-03-06 16:53:00
10:53 AM,63.0,24.1,23,30.04,10.0,SE,5.8,-,N/A,,Clear,140,2013-03-06 17:53:00
11:53 AM,64.9,24.1,21,30.01,10.0,Variable,3.5,-,N/A,,Clear,0,2013-03-06 18:53:00
12:53 PM,70.0,23.0,17,29.96,10.0,Variable,5.8,-,N/A,,Clear,0,2013-03-06 19:53:00
1:53 PM,71.1,21.9,16,29.91,10.0,WSW,8.1,-,N/A,,Clear,240,2013-03-06 20:53:00
2:53 PM,71.1,21.9,16,29.88,10.0,SW,8.1,-,N/A,,Clear,230,2013-03-06 21:53:00
3:53 PM,73.0,21.0,14,29.86,10.0,SW,8.1,16.1,N/A,,Clear,220,2013-03-06 22:53:00
4:53 PM,73.0,21.9,15,29.85,10.0,SW,4.6,-,N/A,,Clear,230,2013-03-06 23:53:00
5:53 PM,72.0,21.9,15,29.85,10.0,Calm,Calm,-,N/A,,Clear,0,2013-03-07 00:53:00
6:53 PM,64.0,19.9,18,29.88,10.0,ESE,6.9,-,N/A,,Clear,120,2013-03-07 01:53:00
7:53 PM,61.0,19.9,21,29.88,10.0,East,3.5,-,N/A,,Clear,100,2013-03-07 02:53:00
8:53 PM,60.1,19.9,21,29.87,10.0,SE,8.1,-,N/A,,Clear,130,2013-03-07 03:53:00
9:53 PM,53.1,18.0,25,29.88,10.0,ENE,5.8,-,N/A,,Clear,60,2013-03-07 04:53:00
10:53 PM,50.0,21.0,32,29.87,10.0,Calm,Calm,-,N/A,,Clear,0,2013-03-07 05:53:00
11:53 PM,48.9,19.0,31,29.87,10.0,West,6.9,-,N/A,,Clear,270,2013-03-07 06:53:00